This is the latest recevied weather packets stored in our database for station/object I5EKX-13. If no packets are shown the sender has not sent any weather packets the latest 10 day(s).
| Time | Temp. | Humidity | Pressure | Rain* | Wind** | Luminosity | Snow |
|---|---|---|---|---|---|---|---|
| 1777599119 | 13.33° C | 39% | 1016.8 hPa | - | - | - | - |
| 1777597916 | 13.33° C | 40% | 1017.1 hPa | - | - | - | - |
| 1777596712 | 13.33° C | 40% | 1017 hPa | - | - | - | - |
| 1777595508 | 13.33° C | 41% | 1016.9 hPa | - | - | - | - |
| 1777594305 | 12.78° C | 41% | 1017 hPa | - | - | - | - |
| 1777593101 | 13.33° C | 39% | 1017.1 hPa | - | - | - | - |
| 1777591897 | 13.33° C | 39% | 1017.1 hPa | - | - | - | - |
| 1777590693 | 13.33° C | 39% | 1016.7 hPa | - | - | - | - |
| 1777589489 | 13.33° C | 37% | 1016.7 hPa | - | - | - | - |
| 1777588285 | 13.89° C | 35% | 1016.6 hPa | - | - | - | - |
| 1777587081 | 13.89° C | 34% | 1016.4 hPa | - | - | - | - |
| 1777585876 | 13.89° C | 33% | 1016.2 hPa | - | - | - | - |
| 1777584672 | 13.89° C | 32% | 1016.1 hPa | - | - | - | - |
| 1777583467 | 13.89° C | 34% | 1016 hPa | - | - | - | - |
| 1777582263 | 13.89° C | 34% | 1016 hPa | - | - | - | - |
| 1777581059 | 14.44° C | 34% | 1016.3 hPa | - | - | - | - |
| 1777578650 | 15° C | 33% | 1016 hPa | - | - | - | - |
| 1777577445 | 15° C | 34% | 1015.8 hPa | - | - | - | - |
| 1777576241 | 15.56° C | 34% | 1015.6 hPa | - | - | - | - |
| 1777575037 | 15.56° C | 35% | 1015.4 hPa | - | - | - | - |
| 1777573832 | 16.11° C | 35% | 1015.1 hPa | - | - | - | - |
| 1777572627 | 17.22° C | 34% | 1015 hPa | - | - | - | - |
| 1777571423 | 17.78° C | 36% | 1014.6 hPa | - | - | - | - |
| 1777570218 | 18.33° C | 36% | 1014.4 hPa | - | - | - | - |
| 1777569014 | 18.89° C | 36% | 1014.3 hPa | - | - | - | - |
* Rain since midnight (hover to see other rain measurements)
** Current wind speed in m/s (hover to see current wind gust speed)